Torna al catalogo

STARLINK-30608

AttivoComunicazioniVLEO
NORAD 58091·PAYLOAD·🇺🇸 United States

Lanciato Oct 18, 2023 da Cape Canaveral Space Force Station

Loading…

Prossimi Passaggi (prossime 24 ore)

TLE

AggiornatoSource: CelesTrak SupGP

Epoca: Sep 14, 2026, 14:25 UTC

1 58091C 23160S   26257.60118056 -.00005636  00000+0 -20416-3 0  2578
2 58091  43.0017  91.1005 0001340 258.0945 200.1386 15.27577891    10

Traccia STARLINK-30608 in tempo reale con AllMySat

Download on the App Store